User: anonymous   Login
Location: Presov
(49.0000°N, 21.2500°E)
Time: 17:16:02
(UTC+02:00)
Language:

Tiros 1 despin weight - Orbit

View from above orbital plane
View from above orbital plane
View from above satellite
View from above satellite

Ground track
Ground track

The orbit data is extracted from the following two-line orbital elements,

1 00115U 60002D   21112.57424859  .00000191  00000-0  49547-4 0  9990
2 00115  48.1663 227.6287 0034565 172.5200 187.6235 14.83749401237714
Epoch (UTC): 22 April 2021 13:46:55
Eccentricity: 0.0034565
inclination: 48.1663°
perigee height: 593 km
apogee height: 641 km
right ascension of ascending node: 227.6287°
argument of perigee: 172.5200°
revolutions per day: 14.83749401
mean anomaly at epoch: 187.6235°
orbit number at epoch: 23771

The dashed part of the orbit path shows where the satellite is in the earth's shadow,  

DLR